This demonstration page uses our WeatherBlox Daily Observations layout. Learn more.

Left ArrowRight Arrow

Hourly Observations for March 29, 2020

Temp ( °F °C ) Dew Point ( °F °C ) Humidity (%) Winds ( mph kmh ) Pressure ( in mb ) Visibility ( mi km ) Precip ( " mm )
12:51 am 00:51 Clear 44 6.7 26 -3.3 49 49 Calm 29.98 1015 10 16 0.00 0.00
1:51 am 01:51 Clear 43 6.1 27 -2.8 53 53 Calm 29.97 1015 10 16 0.00 0.00
2:51 am 02:51 Clear 42 5.6 28 -2.2 58 58 Calm 29.97 1015 10 16 0.00 0.00
3:51 am 03:51 Clear 42 5.6 28 -2.2 58 58 Calm 29.97 1015 10 16 0.00 0.00
4:51 am 04:51 Clear 42 5.6 29 -1.7 60 60 ESE 7 11 29.97 1015 10 16 0.00 0.00
5:51 am 05:51 Clear 44 6.7 28 -2.2 53 53 SSE 8 13 29.98 1015 10 16 0.00 0.00
6:51 am 06:51 Sunny 47 8.3 28 -2.2 48 48 SE 7 11 30.00 1016 10 16 0.00 0.00
7:51 am 07:51 Sunny 51 10.6 29 -1.7 43 43 SSE 7 11 30.01 1016 10 16 0.00 0.00
8:51 am 08:51 Sunny 60 15.6 24 -4.4 25 25 E 14 22 29.99 1016 10 16 0.00 0.00
9:51 am 09:51 Sunny 62 16.7 27 -2.8 26 26 SE 9 15 29.99 1016 10 16 0.00 0.00
10:51 am 10:51 Sunny 64 17.8 25 -3.9 23 23 S 9 15 29.96 1015 10 16 0.00 0.00
11:51 am 11:51 Sunny 67 19.4 24 -4.4 20 20 SE 9 15 29.95 1014 10 16 0.00 0.00
12:51 pm 12:51 Sunny 69 20.6 23 -5 17 17 VRB 3 6 29.91 1013 10 16 0.00 0.00
1:51 pm 13:51 Sunny 72 22.2 20 -6.7 14 14 SSW 9 15 29.88 1012 10 16 0.00 0.00
2:51 pm 14:51 Sunny 73 22.8 21 -6.1 14 14 Calm 29.85 1011 10 16 0.00 0.00
3:51 pm 15:51 Sunny 74 23.3 23 -5 15 15 NNW 6 9 29.83 1010 10 16 0.00 0.00
4:51 pm 16:51 Sunny 72 22.2 19 -7.2 13 13 Calm 29.82 1010 10 16 0.00 0.00
5:51 pm 17:51 Sunny 72 22.2 18 -7.8 13 13 WSW 9 15 29.81 1010 10 16 0.00 0.00
6:12 pm 18:12 Sunny 70 21.1 22 -5.6 16 16 NW 12 19 29.76 1008 10 16 0.00 0.00
6:51 pm 18:51 Clear 67 19.4 25 -3.9 20 20 NW 12 19 29.83 1010 10 16 0.00 0.00
7:51 pm 19:51 Clear 64 17.8 19 -7.2 18 18 NW 12 19 29.84 1010 10 16 0.00 0.00
8:51 pm 20:51 Clear 63 17.2 21 -6.1 20 20 NNW 12 19 29.84 1011 10 16 0.00 0.00
9:51 pm 21:51 Clear 62 16.7 19 -7.2 19 19 NNW 9 15 29.86 1011 10 16 0.00 0.00
10:51 pm 22:51 Clear 52 11.1 23 -5 32 32 S 6 9 29.88 1012 10 16 0.00 0.00
11:51 pm 23:51 Clear 54 12.2 21 -6.1 28 28 NNE 3 6 29.88 1012 10 16 0.00 0.00

Powered by AerisWeather